This is the latest recevied weather packets stored in our database for station/object KT2UU-13. If no packets are shown the sender has not sent any weather packets the latest 10 day(s).
| Time | Temp. | Humidity | Pressure | Rain* | Wind** | Luminosity | Snow |
|---|---|---|---|---|---|---|---|
| 1778097580 | 24.44° C | 81% | 1013.5 hPa | 0 mm | - | - | - |
| 1778097277 | 25° C | 80% | 1013.5 hPa | 0 mm | - | - | - |
| 1778096973 | 25° C | 79% | 1013.2 hPa | 0 mm | - | - | - |
| 1778096671 | 25° C | 78% | 1013.7 hPa | 0 mm | - | - | - |
| 1778096368 | 24.44° C | 79% | 1013.6 hPa | 0 mm | - | - | - |
| 1778096065 | 24.44° C | 80% | 1013.6 hPa | 0 mm | - | - | - |
| 1778095761 | 24.44° C | 81% | 1013.9 hPa | 0 mm | - | - | - |
| 1778095458 | 24.44° C | 80% | 1013.9 hPa | 0 mm | - | - | - |
| 1778095155 | 25° C | 79% | 1013.7 hPa | 0 mm | - | - | - |
| 1778094850 | 25° C | 79% | 1013.9 hPa | 0 mm | - | - | - |
| 1778094548 | 24.44° C | 81% | 1013.9 hPa | 0 mm | - | - | - |
| 1778094244 | 24.44° C | 81% | 1014.3 hPa | 0 mm | - | - | - |
| 1778093941 | 23.89° C | 81% | 1014.1 hPa | 0 mm | - | - | - |
| 1778093638 | 23.89° C | 83% | 1014.3 hPa | 0 mm | - | - | - |
| 1778093330 | 23.33° C | 83% | 1014.6 hPa | 0 mm | - | - | - |
| 1778093027 | 23.89° C | 83% | 1014.5 hPa | 0 mm | - | - | - |
| 1778092724 | 23.89° C | 83% | 1014.2 hPa | 0 mm | - | - | - |
| 1778092418 | 23.33° C | 84% | 1014.7 hPa | 0 mm | - | - | - |
| 1778092111 | 23.33° C | 83% | 1014.8 hPa | 0 mm | - | - | - |
| 1778091808 | 23.33° C | 84% | 1014.9 hPa | 0 mm | - | - | - |
| 1778091506 | 23.33° C | 84% | 1015 hPa | 0 mm | - | - | - |
| 1778091203 | 23.33° C | 84% | 1015.2 hPa | 0 mm | - | - | - |
| 1778090900 | 23.33° C | 85% | 1015.5 hPa | 0 mm | - | - | - |
| 1778090596 | 23.33° C | 84% | 1015.5 hPa | 0 mm | - | - | - |
| 1778090292 | 23.33° C | 84% | 1015.5 hPa | 0 mm | - | - | - |
* Rain latest hour (hover to see other rain measurements)
** Current wind speed in m/s (hover to see current wind gust speed)